QPF
0.00 0.01 0.01 0.01 0.01 0.01 0.01 0.01 0.01 0.01 0.01 0.01 0.02 0.01 0.01 0.02 0.02 0.02 0.02 0.02 0.02 0.03 0.02 0.01 0.01 0.01 0.01 0.01 0.02 0.03 0.03 0.03 0.04 0.05 0.06 0.05 0.05 0.07 0.10 0.15 0.12 0.10 0.08 0.07
0.01 0.01 0.00 0.01 0.01 0.01 0.01 0.02 0.02 0.01 0.01 0.01 0.01 0.01 0.01 0.01 0.01 0.01 0.01 0.01 0.01 0.02 0.02 0.01 0.01 0.01 0.01 0.01 0.01 0.01 0.02 0.03 0.04 0.05 0.05 0.05 0.05 0.06 0.09 0.14 0.14 0.09 0.07 0.06
0.01 0.00 0.00 0.01 0.01 0.01 0.02 0.02 0.02 0.02 0.02 0.02 0.02 0.02 0.01 0.01 0.01 0.01 0.01 0.01 0.01 0.01 0.02 0.01 0.01 0.01 0.01 0.01 0.01 0.01 0.01 0.02 0.03 0.05 0.06 0.06 0.06 0.06 0.07 0.10 0.12 0.09 0.06 0.05
0.01 0.00 0.01 0.01 0.01 0.01 0.02 0.01 0.01 0.02 0.03 0.03 0.02 0.02 0.01 0.01 0.01 0.00 0.00 0.00 0.00 0.01 0.01 0.01 0.01 0.01 0.01 0.01 0.01 0.01 0.01 0.02 0.02 0.03 0.06 0.07 0.07 0.07 0.06 0.06 0.07 0.07 0.06 0.05
0.01 0.01 0.01 0.01 0.01 0.01 0.02 0.02 0.02 0.01 0.03 0.03 0.02 0.02 0.01 0.01 0.01 0.00 0.00 0.00 0.00 0.00 0.01 0.01 0.01 0.01 0.01 0.01 0.01 0.01 0.01 0.01 0.01 0.02 0.04 0.06 0.07 0.07 0.07 0.06 0.06 0.05 0.04 0.04
0.02 0.01 0.01 0.01 0.01 0.01 0.02 0.02 0.02 0.02 0.03 0.04 0.01 0.01 0.00 0.00 0.00 0.00 0.00 0.00 0.00 0.00 0.01 0.01 0.01 0.01 0.01 0.01 0.01 0.01 0.01 0.01 0.01 0.01 0.03 0.04 0.05 0.06 0.08 0.07 0.05 0.05 0.04 0.04
0.02 0.01 0.01 0.01 0.01 0.01 0.02 0.03 0.04 0.05 0.05 0.03 0.01 0.00 0.00 0.00 0.00 0.00 0.00 0.00 0.00 0.00 0.01 0.01 0.01 0.01 0.01 0.01 0.01 0.01 0.01 0.01 0.00 0.00 0.01 0.03 0.04 0.06 0.07 0.08 0.07 0.06 0.05 0.04
0.02 0.02 0.02 0.01 0.01 0.02 0.02 0.03 0.04 0.04 0.03 0.02 0.00 0.00 0.00 0.00 0.00 0.00 0.00 0.00 0.00 0.01 0.01 0.01 0.01 0.01 0.01 0.01 0.01 0.01 0.01 0.01 0.00 0.00 0.01 0.01 0.03 0.04 0.05 0.06 0.07 0.06 0.05 0.04
0.03 0.02 0.02 0.01 0.01 0.01 0.02 0.03 0.03 0.04 0.02 0.01 0.01 0.00 0.00 0.00 0.00 0.00 0.00 0.01 0.03 0.02 0.01 0.02 0.02 0.01 0.00 0.01 0.01 0.02 0.02 0.01 0.01 0.00 0.01 0.01 0.02 0.03 0.03 0.04 0.05 0.05 0.04 0.04
0.03 0.03 0.02 0.02 0.02 0.02 0.02 0.03 0.03 0.03 0.02 0.01 0.01 0.00 0.00 0.00 0.00 0.00 0.00 0.00 0.02 0.02 0.01 0.04 0.04 0.01 0.00 0.01 0.01 0.01 0.02 0.02 0.01 0.01 0.01 0.01 0.02 0.02 0.03 0.03 0.03 0.03 0.03 0.03
0.02 0.03 0.02 0.02 0.02 0.02 0.02 0.02 0.02 0.02 0.02 0.02 0.01 0.00 0.00 0.00 0.00 0.00 0.00 0.00 0.00 0.00 0.00 0.02 0.03 0.02 0.01 0.00 0.00 0.01 0.01 0.01 0.01 0.01 0.01 0.01 0.01 0.02 0.02 0.02 0.02 0.02 0.02 0.02
0.02 0.02 0.02 0.01 0.01 0.01 0.01 0.01 0.01 0.02 0.02 0.01 0.01 0.01 0.00 0.00 0.00 0.00 0.00 0.00 0.00 0.00 0.00 0.00 0.00 0.00 0.00 0.00 0.00 0.00 0.01 0.01 0.01 0.01 0.01 0.01 0.01 0.01 0.02 0.02 0.02 0.03 0.03 0.03
0.03 0.02 0.02 0.02 0.01 0.01 0.01 0.01 0.01 0.01 0.01 0.01 0.01 0.01 0.00 0.00 0.00 0.00 0.00 0.00 0.00 0.00 0.00 0.00 0.00 0.00 0.00 0.00 0.00 0.00 0.00 0.00 0.01 0.01 0.01 0.02 0.02 0.02 0.02 0.02 0.02 0.04 0.04 0.03
0.02 0.02 0.02 0.01 0.00 0.00 0.00 0.00 0.00 0.00 0.01 0.00 0.00 0.00 0.00 0.00 0.00 0.00 0.00 0.00 0.00 0.00 0.00 0.00 0.00 0.00 0.00 0.00 0.00 0.01 0.01 0.01 0.01 0.01 0.01 0.02 0.02 0.02 0.02 0.02 0.02 0.03 0.04 0.05
0.02 0.02 0.01 0.00 0.00 0.00 0.00 0.00 0.00 0.00 0.00 0.00 0.00 0.00 0.00 0.00 0.00 0.00 0.00 0.00 0.00 0.00 0.00 0.00 0.00 0.00 0.00 0.00 0.00 0.00 0.01 0.01 0.01 0.01 0.01 0.02 0.02 0.02 0.03 0.03 0.02 0.02 0.02 0.02
0.03 0.02 0.01 0.01 0.00 0.00 0.00 0.00 0.00 0.00 0.00 0.00 0.00 0.00 0.00 0.00 0.00 0.00 0.00 0.00 0.00 0.00 0.00 0.00 0.00 0.00 0.00 0.00 0.00 0.00 0.00 0.00 0.01 0.01 0.02 0.02 0.02 0.02 0.03 0.03 0.02 0.02 0.02 0.01
0.03 0.02 0.02 0.01 0.01 0.01 0.00 0.00 0.00 0.00 0.00 0.00 0.00 0.00 0.00 0.00 0.00 0.00 0.00 0.00 0.00 0.00 0.00 0.00 0.00 0.00 0.00 0.00 0.00 0.00 0.00 0.00 0.00 0.01 0.01 0.02 0.02 0.02 0.02 0.02 0.02 0.02 0.01 0.01
0.01 0.01 0.02 0.02 0.01 0.01 0.00 0.00 0.00 0.00 0.00 0.00 0.00 0.00 0.00 0.00 0.00 0.00 0.00 0.00 0.00 0.00 0.00 0.00 0.00 0.00 0.00 0.00 0.00 0.00 0.00 0.00 0.01 0.01 0.01 0.02 0.02 0.02 0.02 0.02 0.02 0.01 0.01 0.01
0.01 0.01 0.02 0.02 0.01 0.00 0.00 0.00 0.00 0.00 0.00 0.00 0.00 0.00 0.00 0.00 0.00 0.00 0.00 0.00 0.00 0.00 0.00 0.00 0.00 0.00 0.00 0.00 0.00 0.00 0.00 0.00 0.01 0.01 0.01 0.01 0.01 0.02 0.01 0.01 0.01 0.01 0.01 0.01
0.02 0.02 0.03 0.03 0.02 0.01 0.00 0.00 0.00 0.00 0.00 0.00 0.00 0.00 0.00 0.00 0.00 0.00 0.00 0.00 0.00 0.00 0.00 0.00 0.00 0.00 0.00 0.00 0.00 0.00 0.00 0.01 0.01 0.01 0.01 0.01 0.01 0.01 0.01 0.01 0.01 0.01 0.01 0.01
0.03 0.04 0.04 0.03 0.03 0.01 0.00 0.00 0.00 0.01 0.01 0.00 0.00 0.00 0.01 0.01 0.02 0.01 0.00 0.00 0.00 0.00 0.00 0.00 0.00 0.00 0.00 0.00 0.00 0.00 0.01 0.01 0.01 0.01 0.01 0.01 0.01 0.00 0.00 0.00 0.00 0.01 0.01 0.01
0.02 0.02 0.03 0.03 0.03 0.02 0.01 0.00 0.01 0.01 0.01 0.01 0.01 0.01 0.01 0.01 0.01 0.00 0.00 0.00 0.00 0.00 0.00 0.00 0.00 0.00 0.00 0.00 0.00 0.00 0.00 0.00 0.00 0.00 0.00 0.00 0.00 0.00 0.00 0.00 0.00 0.00 0.01 0.01
0.01 0.02 0.02 0.02 0.03 0.02 0.01 0.01 0.01 0.01 0.01 0.01 0.01 0.01 0.00 0.00 0.00 0.00 0.00 0.00 0.00 0.00 0.00 0.00 0.00 0.00 0.00 0.00 0.00 0.00 0.00 0.00 0.00 0.00 0.00 0.00 0.00 0.00 0.00 0.00 0.00 0.00 0.01 0.01
0.01 0.01 0.01 0.01 0.02 0.01 0.02 0.02 0.02 0.02 0.01 0.01 0.01 0.01 0.01 0.01 0.01 0.00 0.00 0.00 0.00 0.00 0.00 0.00 0.00 0.00 0.00 0.00 0.00 0.00 0.00 0.00 0.00 0.00 0.00 0.00 0.00 0.00 0.00 0.00 0.01 0.01 0.01 0.02
0.01 0.01 0.01 0.01 0.01 0.01 0.01 0.01 0.01 0.01 0.01 0.01 0.01 0.01 0.01 0.01 0.01 0.00 0.00 0.00 0.00 0.00 0.00 0.00 0.00 0.00 0.00 0.00 0.00 0.00 0.00 0.00 0.00 0.00 0.00 0.00 0.00 0.01 0.01 0.01 0.01 0.01 0.01 0.02
0.01 0.01 0.01 0.01 0.01 0.01 0.02 0.01 0.01 0.01 0.01 0.01 0.01 0.00 0.00 0.00 0.00 0.00 0.00 0.00 0.00 0.00 0.00 0.00 0.00 0.00 0.00 0.00 0.00 0.00 0.00 0.01 0.01 0.01 0.01 0.01 0.01 0.01 0.01 0.01 0.01 0.01 0.01 0.01
MSLP
1024.64 1025.12 1025.60 1026.06 1026.44 1026.75 1026.98 1027.13 1027.24 1027.30 1027.36 1027.40 1027.43 1027.44 1027.42 1027.36 1027.26 1027.11 1026.93 1026.74 1026.56 1026.42 1026.35 1026.34 1026.41 1026.54 1026.72 1026.91 1027.09 1027.25 1027.36 1027.42 1027.43 1027.42 1027.39 1027.38 1027.38 1027.43 1027.50 1027.61 1027.73 1027.87 1028.01 1028.14
1025.73 1026.22 1026.66 1027.03 1027.30 1027.46 1027.53 1027.55 1027.53 1027.53 1027.54 1027.58 1027.64 1027.69 1027.72 1027.69 1027.60 1027.43 1027.19 1026.92 1026.63 1026.36 1026.16 1026.03 1025.98 1026.02 1026.12 1026.25 1026.40 1026.52 1026.62 1026.67 1026.68 1026.67 1026.64 1026.62 1026.62 1026.64 1026.70 1026.78 1026.88 1027.00 1027.11 1027.23
1026.86 1027.38 1027.82 1028.13 1028.30 1028.34 1028.28 1028.15 1028.01 1027.89 1027.83 1027.82 1027.86 1027.92 1027.97 1027.97 1027.88 1027.72 1027.46 1027.14 1026.79 1026.43 1026.12 1025.88 1025.72 1025.64 1025.65 1025.70 1025.79 1025.87 1025.94 1025.98 1025.99 1025.97 1025.94 1025.91 1025.90 1025.90 1025.92 1025.96 1026.02 1026.09 1026.17 1026.27
1027.88 1028.47 1028.92 1029.22 1029.33 1029.28 1029.10 1028.85 1028.57 1028.33 1028.15 1028.05 1028.03 1028.05 1028.08 1028.09 1028.04 1027.90 1027.66 1027.35 1026.99 1026.60 1026.22 1025.89 1025.64 1025.46 1025.36 1025.32 1025.32 1025.35 1025.38 1025.39 1025.38 1025.35 1025.31 1025.26 1025.21 1025.17 1025.15 1025.14 1025.15 1025.17 1025.22 1025.28
1028.68 1029.34 1029.83 1030.14 1030.24 1030.14 1029.88 1029.52 1029.12 1028.74 1028.42 1028.20 1028.07 1028.02 1028.02 1028.03 1028.00 1027.91 1027.74 1027.49 1027.16 1026.79 1026.41 1026.04 1025.72 1025.45 1025.25 1025.11 1025.02 1024.97 1024.94 1024.90 1024.86 1024.80 1024.73 1024.64 1024.56 1024.47 1024.39 1024.33 1024.29 1024.27 1024.28 1024.32
1029.20 1029.91 1030.45 1030.78 1030.89 1030.78 1030.49 1030.05 1029.55 1029.05 1028.60 1028.24 1027.99 1027.84 1027.78 1027.77 1027.77 1027.74 1027.66 1027.50 1027.26 1026.96 1026.62 1026.25 1025.90 1025.57 1025.28 1025.05 1024.87 1024.73 1024.62 1024.52 1024.42 1024.32 1024.20 1024.07 1023.93 1023.78 1023.65 1023.54 1023.45 1023.40 1023.39 1023.42
1029.43 1030.16 1030.73 1031.11 1031.25 1031.16 1030.86 1030.40 1029.83 1029.23 1028.66 1028.17 1027.79 1027.53 1027.40 1027.35 1027.37 1027.40 1027.41 1027.36 1027.24 1027.05 1026.78 1026.45 1026.10 1025.74 1025.39 1025.08 1024.81 1024.59 1024.39 1024.22 1024.06 1023.90 1023.72 1023.54 1023.34 1023.14 1022.95 1022.79 1022.67 1022.59 1022.57 1022.60
1029.42 1030.14 1030.72 1031.12 1031.31 1031.26 1031.00 1030.54 1029.95 1029.29 1028.63 1028.03 1027.53 1027.16 1026.94 1026.85 1026.86 1026.93 1027.02 1027.08 1027.08 1026.99 1026.82 1026.56 1026.24 1025.88 1025.50 1025.14 1024.80 1024.50 1024.23 1024.00 1023.77 1023.55 1023.32 1023.08 1022.82 1022.57 1022.33 1022.13 1021.97 1021.88 1021.85 1021.89
1029.28 1029.95 1030.51 1030.93 1031.15 1031.15 1030.93 1030.52 1029.94 1029.26 1028.55 1027.87 1027.27 1026.80 1026.49 1026.34 1026.32 1026.40 1026.54 1026.67 1026.77 1026.78 1026.70 1026.52 1026.25 1025.91 1025.54 1025.15 1024.78 1024.43 1024.12 1023.83 1023.56 1023.29 1023.02 1022.73 1022.43 1022.12 1021.84 1021.59 1021.40 1021.29 1021.25 1021.28
1029.11 1029.70 1030.22 1030.62 1030.86 1030.90 1030.74 1030.38 1029.84 1029.17 1028.45 1027.72 1027.06 1026.51 1026.12 1025.89 1025.82 1025.88 1026.02 1026.19 1026.34 1026.43 1026.43 1026.32 1026.11 1025.81 1025.47 1025.10 1024.72 1024.37 1024.04 1023.74 1023.45 1023.15 1022.85 1022.52 1022.19 1021.84 1021.51 1021.22 1020.99 1020.84 1020.77 1020.77
1029.04 1029.53 1029.97 1030.32 1030.55 1030.61 1030.48 1030.17 1029.68 1029.06 1028.35 1027.61 1026.92 1026.31 1025.85 1025.55 1025.41 1025.41 1025.52 1025.68 1025.85 1025.98 1026.03 1025.98 1025.83 1025.60 1025.31 1024.98 1024.65 1024.32 1024.02 1023.73 1023.44 1023.15 1022.84 1022.50 1022.14 1021.76 1021.39 1021.05 1020.76 1020.55 1020.42 1020.38
1029.10 1029.48 1029.83 1030.10 1030.28 1030.32 1030.20 1029.92 1029.48 1028.90 1028.23 1027.52 1026.81 1026.18 1025.67 1025.30 1025.09 1025.02 1025.07 1025.20 1025.35 1025.48 1025.56 1025.57 1025.48 1025.32 1025.11 1024.85 1024.59 1024.32 1024.07 1023.82 1023.57 1023.30 1023.00 1022.66 1022.28 1021.87 1021.46 1021.06 1020.71 1020.43 1020.22 1020.09
1029.31 1029.57 1029.80 1029.97 1030.06 1030.04 1029.90 1029.62 1029.21 1028.67 1028.04 1027.37 1026.69 1026.06 1025.52 1025.11 1024.84 1024.71 1024.70 1024.77 1024.89 1025.02 1025.12 1025.16 1025.15 1025.07 1024.94 1024.78 1024.60 1024.42 1024.23 1024.04 1023.83 1023.59 1023.30 1022.97 1022.58 1022.15 1021.69 1021.24 1020.82 1020.45 1020.15 1019.92
1029.59 1029.74 1029.84 1029.88 1029.85 1029.74 1029.53 1029.22 1028.81 1028.30 1027.72 1027.09 1026.46 1025.86 1025.33 1024.91 1024.61 1024.44 1024.38 1024.41 1024.50 1024.63 1024.75 1024.84 1024.90 1024.91 1024.88 1024.82 1024.73 1024.64 1024.52 1024.38 1024.21 1024.00 1023.72 1023.39 1022.99 1022.54 1022.05 1021.55 1021.07 1020.62 1020.22 1019.89
1029.86 1029.90 1029.87 1029.76 1029.59 1029.35 1029.05 1028.68 1028.24 1027.74 1027.20 1026.64 1026.07 1025.53 1025.04 1024.65 1024.35 1024.17 1024.09 1024.11 1024.20 1024.34 1024.50 1024.66 1024.80 1024.91 1024.98 1025.02 1025.03 1025.00 1024.94 1024.84 1024.69 1024.49 1024.22 1023.87 1023.46 1022.99 1022.47 1021.94 1021.41 1020.90 1020.43 1020.02
1030.01 1029.95 1029.79 1029.54 1029.22 1028.84 1028.41 1027.96 1027.47 1026.98 1026.47 1025.96 1025.47 1025.00 1024.60 1024.26 1024.01 1023.86 1023.81 1023.85 1023.98 1024.16 1024.39 1024.63 1024.87 1025.08 1025.26 1025.40 1025.48 1025.52 1025.49 1025.41 1025.25 1025.03 1024.74 1024.37 1023.94 1023.45 1022.92 1022.37 1021.82 1021.28 1020.77 1020.30
1029.95 1029.81 1029.53 1029.15 1028.68 1028.16 1027.61 1027.06 1026.52 1026.01 1025.52 1025.08 1024.66 1024.29 1023.98 1023.73 1023.56 1023.48 1023.50 1023.61 1023.80 1024.07 1024.39 1024.74 1025.09 1025.42 1025.71 1025.93 1026.09 1026.16 1026.15 1026.05 1025.87 1025.60 1025.27 1024.86 1024.40 1023.90 1023.37 1022.82 1022.27 1021.74 1021.23 1020.74
1029.64 1029.43 1029.06 1028.56 1027.96 1027.32 1026.66 1026.02 1025.43 1024.90 1024.44 1024.04 1023.70 1023.43 1023.21 1023.07 1023.01 1023.03 1023.14 1023.35 1023.66 1024.04 1024.48 1024.96 1025.44 1025.89 1026.28 1026.60 1026.81 1026.91 1026.89 1026.75 1026.52 1026.20 1025.80 1025.35 1024.86 1024.34 1023.81 1023.29 1022.77 1022.27 1021.78 1021.32
1029.08 1028.81 1028.37 1027.79 1027.11 1026.37 1025.63 1024.92 1024.29 1023.74 1023.29 1022.93 1022.67 1022.48 1022.37 1022.34 1022.39 1022.53 1022.76 1023.09 1023.52 1024.04 1024.63 1025.24 1025.86 1026.44 1026.94 1027.34 1027.60 1027.72 1027.68 1027.51 1027.21 1026.82 1026.36 1025.86 1025.33 1024.81 1024.29 1023.80 1023.32 1022.87 1022.43 1022.00
1028.30 1028.01 1027.53 1026.90 1026.16 1025.37 1024.58 1023.83 1023.17 1022.62 1022.18 1021.86 1021.65 1021.54 1021.53 1021.60 1021.76 1022.02 1022.38 1022.85 1023.42 1024.09 1024.82 1025.58 1026.34 1027.04 1027.65 1028.12 1028.43 1028.56 1028.51 1028.30 1027.95 1027.50 1026.99 1026.44 1025.88 1025.35 1024.84 1024.38 1023.95 1023.55 1023.16 1022.77
1027.38 1027.07 1026.58 1025.94 1025.18 1024.37 1023.56 1022.80 1022.13 1021.59 1021.17 1020.89 1020.73 1020.69 1020.76 1020.93 1021.21 1021.59 1022.08 1022.68 1023.40 1024.20 1025.08 1025.98 1026.87 1027.68 1028.39 1028.93 1029.28 1029.43 1029.37 1029.14 1028.75 1028.26 1027.70 1027.12 1026.54 1026.00 1025.52 1025.08 1024.69 1024.32 1023.97 1023.61
1026.37 1026.05 1025.56 1024.93 1024.18 1023.39 1022.59 1021.85 1021.20 1020.68 1020.29 1020.05 1019.95 1019.98 1020.13 1020.40 1020.79 1021.29 1021.91 1022.65 1023.50 1024.44 1025.44 1026.47 1027.46 1028.37 1029.15 1029.75 1030.14 1030.31 1030.26 1030.01 1029.61 1029.10 1028.52 1027.92 1027.35 1026.81 1026.34 1025.92 1025.55 1025.21 1024.87 1024.53
1025.29 1024.96 1024.47 1023.86 1023.15 1022.39 1021.64 1020.94 1020.34 1019.87 1019.54 1019.36 1019.32 1019.44 1019.68 1020.06 1020.56 1021.19 1021.94 1022.81 1023.79 1024.85 1025.96 1027.08 1028.15 1029.13 1029.95 1030.59 1031.00 1031.19 1031.14 1030.90 1030.51 1030.00 1029.44 1028.85 1028.29 1027.77 1027.32 1026.91 1026.55 1026.21 1025.88 1025.52
1024.11 1023.76 1023.27 1022.68 1022.02 1021.32 1020.64 1020.02 1019.49 1019.10 1018.85 1018.76 1018.82 1019.04 1019.41 1019.92 1020.56 1021.33 1022.22 1023.22 1024.32 1025.48 1026.67 1027.85 1028.97 1029.97 1030.80 1031.44 1031.86 1032.04 1032.01 1031.79 1031.41 1030.94 1030.41 1029.86 1029.34 1028.86 1028.42 1028.03 1027.68 1027.33 1026.97 1026.59
1022.80 1022.40 1021.90 1021.34 1020.73 1020.11 1019.53 1019.01 1018.60 1018.31 1018.19 1018.22 1018.42 1018.78 1019.29 1019.96 1020.77 1021.70 1022.74 1023.88 1025.08 1026.33 1027.58 1028.79 1029.90 1030.88 1031.69 1032.30 1032.68 1032.86 1032.82 1032.61 1032.28 1031.85 1031.37 1030.89 1030.43 1029.99 1029.60 1029.23 1028.88 1028.52 1028.14 1027.72
1021.28 1020.81 1020.31 1019.77 1019.24 1018.72 1018.25 1017.87 1017.60 1017.47 1017.50 1017.70 1018.07 1018.61 1019.31 1020.17 1021.16 1022.27 1023.47 1024.75 1026.05 1027.37 1028.64 1029.84 1030.92 1031.84 1032.58 1033.12 1033.44 1033.58 1033.53 1033.33 1033.03 1032.67 1032.27 1031.87 1031.48 1031.11 1030.77 1030.44 1030.09 1029.73 1029.33 1028.88
Thickness
5580 5583 5581 5579 5579 5584 5585 5585 5585 5583 5576 5578 5585 5590 5598 5597 5595 5598 5600 5600 5597 5596 5594 5589 5586 5582 5578 5575 5572 5570 5567 5563 5559 5557 5555 5554 5553 5551 5550 5550 5549 5548 5547 5545
5579 5573 5567 5565 5567 5571 5575 5579 5581 5576 5571 5573 5580 5587 5596 5596 5595 5596 5598 5598 5596 5594 5590 5586 5583 5580 5576 5573 5570 5567 5564 5560 5556 5554 5552 5550 5548 5547 5545 5545 5543 5542 5540 5538
5575 5563 5557 5560 5563 5567 5569 5574 5574 5570 5567 5567 5573 5594 5599 5598 5594 5593 5594 5595 5594 5592 5590 5586 5582 5579 5575 5572 5568 5565 5562 5558 5554 5551 5548 5545 5543 5542 5541 5539 5537 5535 5533 5531
5559 5552 5553 5557 5558 5562 5569 5562 5562 5560 5568 5576 5571 5592 5604 5598 5596 5596 5596 5594 5593 5590 5587 5584 5580 5577 5573 5570 5566 5562 5559 5555 5552 5548 5545 5544 5543 5542 5540 5535 5532 5529 5526 5524
5554 5548 5551 5555 5553 5553 5559 5554 5556 5558 5561 5566 5570 5578 5605 5594 5599 5602 5600 5595 5592 5588 5585 5582 5579 5575 5571 5567 5563 5559 5556 5553 5549 5546 5543 5541 5540 5537 5533 5529 5526 5524 5521 5519
5544 5539 5541 5545 5544 5544 5546 5549 5552 5553 5558 5567 5571 5575 5601 5604 5605 5605 5602 5596 5591 5586 5582 5579 5575 5570 5567 5563 5559 5556 5553 5550 5546 5543 5540 5538 5536 5532 5528 5525 5523 5520 5517 5514
5548 5542 5536 5537 5546 5545 5548 5558 5564 5567 5565 5577 5564 5570 5596 5606 5603 5601 5600 5596 5590 5584 5581 5577 5573 5568 5564 5560 5556 5553 5550 5547 5544 5540 5537 5534 5531 5528 5525 5522 5519 5515 5512 5510
5557 5556 5540 5536 5545 5551 5550 5556 5564 5570 5575 5581 5561 5578 5603 5598 5594 5591 5591 5589 5584 5580 5577 5574 5571 5567 5562 5558 5554 5551 5548 5544 5541 5537 5534 5530 5526 5523 5520 5517 5514 5511 5508 5505
5560 5555 5533 5529 5532 5542 5547 5549 5548 5552 5536 5554 5580 5585 5594 5592 5590 5587 5586 5584 5581 5579 5574 5571 5568 5564 5560 5555 5551 5548 5545 5541 5538 5534 5530 5526 5522 5519 5516 5513 5509 5506 5503 5499
5548 5545 5534 5527 5528 5530 5537 5542 5541 5549 5558 5571 5578 5582 5598 5595 5596 5590 5584 5582 5580 5576 5571 5567 5564 5560 5556 5552 5548 5544 5541 5538 5533 5529 5525 5521 5518 5514 5511 5507 5504 5500 5497 5493
5534 5540 5533 5528 5532 5541 5532 5534 5540 5544 5547 5563 5573 5594 5600 5596 5593 5588 5585 5581 5578 5574 5569 5565 5561 5557 5552 5548 5544 5540 5536 5533 5529 5525 5520 5516 5513 5508 5505 5501 5498 5494 5490 5486
5525 5535 5538 5535 5523 5519 5529 5538 5541 5549 5543 5541 5558 5584 5591 5585 5583 5580 5578 5575 5571 5568 5565 5561 5557 5552 5548 5544 5541 5537 5533 5529 5525 5520 5515 5511 5507 5503 5499 5495 5491 5487 5483 5480
5518 5527 5539 5541 5527 5514 5520 5526 5529 5533 5536 5537 5552 5581 5581 5575 5574 5573 5571 5569 5566 5562 5560 5556 5552 5548 5545 5542 5538 5534 5529 5525 5520 5515 5510 5505 5501 5497 5493 5488 5484 5480 5476 5473
5514 5517 5534 5550 5552 5537 5524 5522 5520 5526 5536 5541 5551 5576 5582 5578 5575 5573 5569 5565 5562 5558 5555 5551 5548 5545 5541 5537 5534 5530 5525 5520 5515 5510 5505 5500 5496 5491 5487 5482 5477 5473 5470 5467
5503 5511 5507 5514 5516 5517 5521 5524 5519 5523 5541 5546 5563 5562 5578 5577 5571 5569 5564 5559 5554 5551 5549 5546 5543 5540 5537 5532 5528 5524 5520 5515 5510 5505 5500 5496 5490 5485 5480 5476 5471 5467 5463 5459
5490 5495 5489 5496 5500 5501 5506 5522 5522 5523 5531 5538 5545 5555 5570 5565 5560 5557 5555 5551 5549 5547 5545 5542 5538 5534 5530 5526 5522 5518 5514 5510 5505 5500 5495 5490 5484 5478 5473 5469 5464 5460 5456 5452
5480 5481 5493 5510 5487 5494 5522 5538 5529 5529 5534 5538 5546 5563 5563 5555 5552 5551 5548 5544 5543 5542 5540 5536 5533 5530 5525 5521 5516 5512 5508 5503 5498 5494 5489 5483 5477 5472 5467 5462 5457 5453 5449 5445
5471 5473 5479 5488 5490 5517 5555 5539 5537 5534 5538 5537 5545 5554 5551 5547 5544 5540 5538 5537 5537 5535 5534 5532 5528 5524 5519 5514 5509 5504 5500 5496 5492 5487 5482 5477 5471 5466 5461 5455 5451 5447 5442 5438
5467 5468 5470 5477 5496 5519 5539 5529 5522 5523 5538 5539 5535 5540 5537 5529 5530 5538 5534 5530 5530 5528 5526 5524 5520 5517 5511 5505 5500 5495 5491 5487 5484 5480 5475 5470 5465 5460 5454 5450 5445 5440 5435 5431
5451 5455 5463 5466 5490 5511 5543 5521 5510 5517 5532 5538 5528 5529 5525 5516 5531 5544 5530 5523 5520 5517 5514 5511 5508 5505 5500 5496 5490 5487 5483 5480 5477 5473 5468 5463 5458 5453 5449 5444 5438 5433 5427 5423
5440 5444 5453 5463 5480 5504 5519 5497 5499 5517 5535 5528 5520 5519 5513 5512 5524 5523 5515 5511 5508 5504 5501 5499 5496 5493 5490 5485 5480 5477 5475 5472 5469 5464 5459 5454 5449 5445 5440 5435 5429 5424 5418 5413
5456 5450 5447 5453 5465 5498 5497 5485 5501 5519 5515 5509 5505 5505 5504 5506 5506 5503 5501 5498 5496 5492 5489 5486 5484 5482 5478 5473 5470 5468 5466 5463 5457 5453 5449 5445 5440 5435 5430 5424 5419 5413 5408 5403
5456 5469 5469 5471 5494 5499 5485 5489 5492 5489 5492 5494 5494 5493 5492 5492 5493 5492 5490 5488 5485 5481 5477 5474 5471 5469 5465 5461 5458 5458 5456 5450 5445 5441 5438 5434 5429 5425 5420 5415 5410 5404 5399 5395
5444 5442 5448 5450 5473 5475 5470 5471 5472 5471 5474 5478 5478 5478 5477 5478 5480 5477 5475 5473 5470 5468 5464 5461 5458 5456 5454 5450 5446 5445 5441 5437 5433 5430 5427 5423 5418 5415 5409 5405 5400 5396 5392 5387
5448 5429 5434 5443 5457 5456 5464 5462 5463 5462 5460 5460 5461 5461 5462 5463 5463 5464 5463 5461 5459 5456 5452 5449 5447 5445 5443 5438 5435 5431 5427 5424 5421 5418 5415 5411 5407 5404 5399 5395 5391 5387 5383 5379
5430 5426 5437 5458 5458 5453 5462 5459 5453 5450 5450 5449 5448 5449 5448 5446 5449 5450 5449 5447 5444 5441 5438 5435 5433 5431 5429 5425 5421 5417 5414 5411 5408 5406 5402 5399 5396 5392 5388 5383 5378 5374 5370 5366